Weather History for White Mountain, AK

Change the Weather History Date:

Wednesday, January 18, 2012

  Actual Average (PAKK) Record (PAKK)
Temperature  
Mean Temperature 4 °F -  
Max Temperature 10 °F 10 °F 32 °F (2000)
Min Temperature 0 °F 2 °F -23 °F (2004)
Degree Days  
Heating Degree Days 60    
Moisture  
Dew Point -3 °F    
Average Humidity 73    
Maximum Humidity 77    
Minimum Humidity 67    
Precipitation  
Precipitation 0.00 in - - ()
Sea Level Pressure  
Sea Level Pressure 30.69 in    
Wind  
Wind Speed 10 mph ()    
Max Wind Speed 17 mph    
Max Gust Speed -    
Visibility 10.0 miles    
Events      
Averages and records for this station are not official NWS values.
T = Trace of Precipitation, MM = Missing Value Source: Averaged Metar Reports

Daily Weather History Graph

Daily Weather History Graph

Search for Another Location

Airport:

Trip Planner

Search our weather history database for the weather conditions in past years. The results will help you decide how hot, cold, wet, or windy it might be!

Date:

Astronomy

Jan. 18, 2012 Rise Set
Actual Time 11:20 AM AKST 4:48 PM AKST
Civil Twilight 10:12 AM AKST 5:56 PM AKST
Nautical Twilight 9:07 AM AKST 7:01 PM AKST
Astronomical Twilight 8:08 AM AKST 8:00 PM AKST
Moon 7:26 AM AKST (1/18) 12:11 PM AKST (1/18)
Length of Visible Light 7h 44m
Length of Day
5h 28m
Waning Crescent, 23% of the Moon is Illuminated
Jan 18
Waning Crescent
Jan 22
New
Jan 30
First Quarter
Feb 7
Full
Feb 14
Last Quarter

Hourly Weather History & Observations

Time (AKST) Temp. Windchill Dew Point Humidity Pressure Visibility Wind Dir Wind Speed Gust Speed Precip Events Conditions
12:58 AM 3.9 °F -13.7 °F -2.9 °F 73% 30.89 in 10.0 mi North 13.8 mph - N/A   Clear
1:58 AM 1.9 °F -15.5 °F -4.0 °F 76% 30.89 in 10.0 mi North 12.7 mph - N/A   Clear
3:58 AM -0.9 °F -21.9 °F -7.1 °F 75% 30.87 in 10.0 mi North 17.3 mph - N/A   Clear
4:58 AM 1.0 °F -15.8 °F -6.0 °F 72% 30.86 in 10.0 mi North 11.5 mph - N/A   Clear
5:58 AM -0.0 °F -19.4 °F -6.0 °F 76% 30.86 in 10.0 mi North 15.0 mph - N/A   Clear
6:58 AM -0.0 °F -18.7 °F -7.1 °F 72% 30.85 in 10.0 mi North 13.8 mph - N/A   Clear
7:58 AM -0.9 °F -19.9 °F -7.1 °F 75% 30.83 in 10.0 mi North 13.8 mph - N/A   Clear
8:58 AM -0.0 °F -19.4 °F -7.1 °F 72% 30.80 in 10.0 mi North 15.0 mph - N/A   Clear
9:58 AM -0.0 °F -19.4 °F -7.1 °F 72% 30.79 in 10.0 mi North 15.0 mph - N/A   Clear
10:58 AM -0.9 °F -18.3 °F -7.1 °F 75% 30.78 in 10.0 mi North 11.5 mph - N/A   Clear
11:58 AM 1.9 °F -5.6 °F -5.1 °F 72% 30.76 in 10.0 mi NNW 3.5 mph - N/A   Clear
12:58 PM 6.1 °F -4.3 °F -2.0 °F 69% 30.74 in 10.0 mi NNW 5.8 mph - N/A   Clear
1:58 PM 5.0 °F -8.1 °F -2.9 °F 70% 30.71 in 10.0 mi North 8.1 mph - N/A   Clear
2:58 PM 7.0 °F 0.1 °F -2.0 °F 67% 30.70 in 10.0 mi NNW 3.5 mph - N/A   Scattered Clouds
3:58 PM 7.0 °F -4.5 °F -0.0 °F 73% 30.66 in 10.0 mi North 6.9 mph - N/A   Overcast
5:58 PM 7.0 °F -1.7 °F 1.0 °F 77% 30.59 in 10.0 mi North 4.6 mph - N/A   Overcast
6:58 PM 7.0 °F -4.5 °F -0.9 °F 70% 30.55 in 10.0 mi NW 6.9 mph - N/A   Overcast
7:58 PM 6.1 °F -2.8 °F -0.0 °F 76% 30.51 in 10.0 mi NNW 4.6 mph - N/A   Overcast
8:58 PM 7.0 °F -1.7 °F 1.0 °F 77% 30.47 in 10.0 mi NNE 4.6 mph - N/A   Overcast
9:58 PM 8.1 °F -2.0 °F 1.9 °F 76% 30.42 in 10.0 mi NNW 5.8 mph - N/A   Overcast
10:58 PM 9.0 °F -2.2 °F 1.9 °F 73% 30.37 in 10.0 mi North 6.9 mph - N/A   Overcast
11:58 PM 10.0 °F -2.9 °F 3.0 °F 73% 30.33 in 10.0 mi NW 9.2 mph - N/A   Mostly Cloudy